Location: Big Meadows
(38.5260°N, 78.4400°W)
Time: 23:06:52
(UTC-04:00)

Amateur Radio Satellites - All Passes

Search period start: 18 April 2015 22:36
Search period end: 19 April 2015 22:36
Location: Big Meadows, 38.5260°N, 78.4400°W

Satellite Date Start Highest point End Downlink Frequencies (MHz)
Time Altitude Azimuth
Oscar 11 18 Apr 22:37:52 22:41:58 40° 262° (W) 22:46:04 145.826/435.025
50 SAT 18 Apr 22:41:25 22:44:56 31° 72° (ENE) 22:48:31 437.505
HO-68 18 Apr 22:45:41 22:50:46 19° 270° (W) 22:55:31 435.675
DELFI C3 18 Apr 22:56:53 23:00:31 30° 264° (W) 23:04:08 145.870
DX 1 18 Apr 22:57:42 23:02:01 69° 258° (WSW) 23:06:21 434.975-435.025
ISS 18 Apr 22:58:26 23:01:06 23° 227° (SW) 23:03:43 145.825
PHONESAT 2.4 18 Apr 22:59:34 23:03:08 70° 351° (N) 23:06:42 2401.200-2431.200
TIGRISAT 18 Apr 23:03:10 23:06:52 23° 93° (E) 23:10:40 435.000
UWE-3 18 Apr 23:03:38 23:07:26 31° 264° (W) 23:11:18 435.000/436.395/437.385
UNISAT 6 18 Apr 23:03:45 23:07:33 24° 93° (E) 23:11:25 437.425
SO-50 18 Apr 23:05:53 23:10:52 85° 59° (ENE) 23:15:46 436.795
CINEMA 3 18 Apr 23:08:10 23:10:04 12° 272° (W) 23:11:46 145.822/145.860
HUMSAT D 18 Apr 23:18:21 23:22:26 55° 260° (W) 23:26:36 437.325/437.525
RS-15 18 Apr 23:20:38 23:30:12 30° 34° (NE) 23:40:22 29.354- 29.394
O/OREOS (USA 219) 18 Apr 23:21:45 23:24:52 19° 102° (ESE) 23:28:08 437.305
POLYITAN 1 18 Apr 23:28:50 23:32:01 20° 93° (E) 23:35:19 437.675
VELOX 1 18 Apr 23:33:48 23:38:10 64° 259° (W) 23:42:34 145.980
FUNcube-1 18 Apr 23:35:14 23:38:15 18° 268° (W) 23:41:11 145.935
DUCHIFAT 1 18 Apr 23:39:22 23:42:54 25° 95° (E) 23:46:30 145.980
ANTELSAT 18 Apr 23:44:49 23:49:32 68° 101° (E) 23:54:13 437.575/2403.000
VERMONT LUNAR 18 Apr 23:48:24 23:51:47 71° 8° (N) 23:55:09 437.305
AISAT 18 Apr 23:48:44 23:52:55 41° 262° (W) 23:57:05 437.250
QB50P1 18 Apr 23:51:25 23:55:23 36° 98° (E) 23:59:21 145.935-145.965
UKube-1 18 Apr 23:53:34 23:56:34 18° 267° (W) 23:59:26 .
ESTCUBE 1 19 Apr 00:00:08 00:04:37 63° 259° (W) 00:09:07 437.505/2401.250
CUBEBUG 1 19 Apr 00:02:09 00:06:28 67° 259° (W) 00:10:48 437.445
BUGSAT 1 19 Apr 00:08:58 00:12:48 38° 98° (E) 00:16:42 437.445
Cosmos 2491 19 Apr 00:09:49 00:18:30 80° 95° (E) 00:27:17 435.465 / 435.565
QB50P2 19 Apr 00:14:24 00:18:42 70° 102° (ESE) 00:22:59 145.880/145.840
TISAT 1 19 Apr 00:16:44 00:20:30 34° 72° (ENE) 00:24:19 437.305
50 SAT 19 Apr 00:17:08 00:19:52 17° 268° (W) 00:22:31 437.505
SPROUT 19 Apr 00:17:19 00:21:21 43° 73° (ENE) 00:25:26 437.525
Cosmos 2504 19 Apr 00:18:37 00:22:40 15° 59° (ENE) 00:27:05 435.465 / 435.565
YUBILEINY 19 Apr 00:26:32 00:34:48 47° 271° (W) 00:42:53 435.215
SWISSCUBE 19 Apr 00:33:50 00:34:18 10° 62° (ENE) 00:35:03 437.505
POPSAT HIP 1 19 Apr 00:37:43 00:41:59 64° 285° (WNW) 00:46:14 437.405
PHONESAT 2.4 19 Apr 00:38:01 00:41:35 69° 8° (N) 00:45:08 2401.200-2431.200
NANOSAT C BR1 19 Apr 00:38:08 00:42:22 63° 285° (WNW) 00:46:36 145.865
TIGRISAT 19 Apr 00:39:25 00:43:41 33° 289° (WNW) 00:47:52 435.000
UNISAT 6 19 Apr 00:40:09 00:44:22 32° 289° (WNW) 00:48:30 437.425
SO-50 19 Apr 00:49:48 00:50:49 10° 253° (WSW) 00:51:30 436.795
O/OREOS (USA 219) 19 Apr 00:59:44 01:04:03 38° 297° (WNW) 01:08:20 437.305
POLYITAN 1 19 Apr 01:04:10 01:08:00 31° 289° (WNW) 01:11:48 437.675
DUCHIFAT 1 19 Apr 01:15:08 01:18:40 25° 290° (WNW) 01:22:07 145.980
ANTELSAT 19 Apr 01:23:39 01:25:49 13° 296° (WNW) 01:27:44 437.575/2403.000
VERMONT LUNAR 19 Apr 01:26:06 01:29:14 37° 206° (SSW) 01:32:21 437.305
QB50P1 19 Apr 01:28:01 01:31:01 18° 292° (WNW) 01:33:54 145.935-145.965
ITUPSAT 1 19 Apr 01:30:13 01:34:34 36° 71° (ENE) 01:38:58 437.325
AIST 1 19 Apr 01:32:34 01:36:18 29° 91° (E) 01:40:05
RS-15 19 Apr 01:32:47 01:44:26 89° 64° (ENE) 01:56:34 29.354- 29.394
BUGSAT 1 19 Apr 01:45:26 01:48:02 16° 292° (WNW) 01:50:29 437.445
QB50P2 19 Apr 01:53:30 01:54:06 10° 295° (WNW) 01:54:25 145.880/145.840
TISAT 1 19 Apr 01:53:31 01:56:26 18° 267° (W) 01:59:13 437.305
SPROUT 19 Apr 01:55:17 01:57:43 14° 269° (W) 01:59:58 437.525
BEESAT 19 Apr 02:05:33 02:10:21 85° 73° (ENE) 02:15:10 436.000
SWISSCUBE 19 Apr 02:06:44 02:11:32 86° 254° (WSW) 02:16:22 437.505
Cosmos 2504 19 Apr 02:09:27 02:17:46 83° 83° (E) 02:25:25 435.465 / 435.565
Cosmos 2491 19 Apr 02:10:13 02:16:33 21° 297° (WNW) 02:22:31 435.465 / 435.565
PHONESAT 2.4 19 Apr 02:16:24 02:19:48 43° 204° (SSW) 02:23:10 2401.200-2431.200
KKS-1 19 Apr 02:28:55 02:32:32 26° 69° (ENE) 02:36:15 437.445
Oscar 19 19 Apr 02:50:26 02:55:41 88° 102° (ESE) 03:00:54 437.125/150
Gurwin Techsat 1B 19 Apr 02:53:52 02:58:04 24° 93° (E) 03:02:23 435.225
GONETS M04 19 Apr 02:56:06 02:56:38 10° 54° (NE) 02:57:59
ITAMSAT 1 19 Apr 03:08:22 03:13:09 38° 97° (E) 03:17:58 435.822/435.867
ITUPSAT 1 19 Apr 03:08:46 03:12:34 22° 266° (W) 03:16:16 437.325
AIST 1 19 Apr 03:10:42 03:14:01 20° 287° (WNW) 03:17:13
STARS 19 Apr 03:41:08 03:45:30 79° 258° (WSW) 03:49:55 437.465
RS-15 19 Apr 03:47:16 03:55:46 22° 257° (WSW) 04:03:45 29.354- 29.394
Cosmos 2504 19 Apr 04:05:12 04:10:06 17° 280° (W) 04:14:21 435.465 / 435.565
KKS-1 19 Apr 04:05:21 04:09:07 26° 265° (W) 04:12:51 437.445
DANDE 19 Apr 04:10:00 04:12:55 13° 65° (ENE) 04:16:35 436.750
BEESAT 2 19 Apr 04:11:07 04:13:31 16° 111° (ESE) 04:16:07 435.950
BEESAT 3 19 Apr 04:18:38 04:21:49 23° 113° (ESE) 04:25:08 437.485
CUSAT 1 19 Apr 04:18:41 04:23:39 21° 68° (ENE) 04:29:31 437.405
Oscar 19 19 Apr 04:32:36 04:34:23 11° 298° (WNW) 04:35:52 437.125/150
Gurwin Techsat 1B 19 Apr 04:33:16 04:38:12 39° 290° (WNW) 04:43:04 435.225
AO-7 19 Apr 04:34:08 04:41:30 35° 97° (E) 04:49:01 29.400- 29.500
HORYU 2 19 Apr 04:40:00 04:44:27 56° 100° (E) 04:48:52 437.375
M-CUBED/EXP-1 PRIME 19 Apr 04:44:56 04:46:02 11° 57° (ENE) 04:47:25 437.505
GONETS M04 19 Apr 04:47:11 04:55:56 60° 78° (ENE) 05:04:39
ITAMSAT 1 19 Apr 04:48:19 04:52:29 25° 293° (WNW) 04:56:32 435.822/435.867
JAS-2 19 Apr 05:02:51 05:09:25 55° 98° (E) 05:15:12 435.910
MOZHAYETS 4 19 Apr 05:13:09 05:17:48 86° 258° (WSW) 05:22:29
AUBIESAT-1 19 Apr 05:31:10 05:35:06 28° 64° (ENE) 05:39:12 437.475
BEESAT 2 19 Apr 05:47:23 05:51:20 43° 306° (NW) 05:55:19 435.950
DANDE 19 Apr 05:50:12 05:56:58 76° 80° (E) 06:05:15 436.750
BEESAT 3 19 Apr 05:56:05 05:59:43 30° 308° (NW) 06:03:23 437.485
CUSAT 1 19 Apr 05:59:54 06:06:54 77° 263° (W) 06:15:08 437.405
AIST 2 19 Apr 06:01:26 06:05:41 83° 120° (ESE) 06:10:00 435.215
M-CUBED/EXP-1 PRIME 19 Apr 06:15:31 06:20:11 88° 79° (E) 06:25:04 437.505
HORYU 2 19 Apr 06:18:18 06:20:41 14° 295° (WNW) 06:22:51 437.375
AO-7 19 Apr 06:26:36 06:34:32 50° 294° (WNW) 06:42:24 29.400- 29.500
CUBESAT XI-V 19 Apr 06:28:51 06:33:16 45° 73° (ENE) 06:37:43 437.345
JUGNU 19 Apr 06:37:55 06:39:50 12° 180° (S) 06:41:45 437.505
CUTE-I 19 Apr 06:42:19 06:46:30 24° 94° (E) 06:50:48 437.470
GONETS M04 19 Apr 06:45:03 06:52:16 28° 276° (W) 06:59:08
JAS-2 19 Apr 06:48:45 06:53:59 24° 298° (WNW) 06:58:36 435.910
Cubesat XI-IV 19 Apr 06:49:25 06:53:55 28° 95° (E) 06:58:31 437.490
STRAND 1 19 Apr 06:50:21 06:55:06 40° 71° (ENE) 06:59:53 437.568
Cosmos 2499 19 Apr 06:53:16 07:01:15 64° 79° (ENE) 07:08:37 435.465 / 435.565
PRISM 19 Apr 07:00:31 07:04:41 69° 76° (ENE) 07:08:51 437.425
AUBIESAT-1 19 Apr 07:05:36 07:09:47 32° 260° (W) 07:14:02 437.475
DANDE 19 Apr 07:34:57 07:40:01 20° 270° (W) 07:45:20 436.750
AIST 2 19 Apr 07:43:04 07:44:56 12° 319° (NW) 07:46:39 435.215
CUSAT 1 19 Apr 07:45:40 07:49:13 13° 274° (W) 07:52:21 437.405
CUBESAT XI-V 19 Apr 08:07:59 08:11:00 16° 269° (W) 08:13:49 437.345
SRMSAT 19 Apr 08:21:24 08:23:29 12° 180° (S) 08:25:35 437.500
CUTE-I 19 Apr 08:21:48 08:26:44 39° 290° (WNW) 08:31:38 437.470
HO-68 19 Apr 08:27:26 08:30:17 13° 87° (E) 08:33:42 435.675
Cubesat XI-IV 19 Apr 08:29:18 08:34:04 34° 291° (WNW) 08:38:45 437.490
STRAND 1 19 Apr 08:30:28 08:34:29 22° 267° (W) 08:38:21 437.568
Cosmos 2499 19 Apr 08:47:50 08:53:41 22° 278° (W) 08:58:55 435.465 / 435.565
DOVE 4 19 Apr 09:22:59 09:27:17 29° 95° (E) 09:31:50 437.250
BRITE-PL 19 Apr 09:23:15 09:28:07 66° 101° (ESE) 09:33:22 437.365/2234.400
PCSat 19 Apr 09:23:32 09:27:37 23° 108° (ESE) 09:31:51 145.827
CINEMA 3 19 Apr 09:25:26 09:28:16 16° 90° (E) 09:31:21 145.822/145.860
COMPASS 1 19 Apr 09:26:48 09:29:55 20° 93° (E) 09:33:07 437.405
O/OREOS (USA 219) 19 Apr 09:32:02 09:35:55 28° 61° (ENE) 09:39:50 437.305
CANX-2 19 Apr 09:35:59 09:40:07 44° 98° (E) 09:44:12 2200.000
SEEDS 19 Apr 09:40:07 09:44:04 36° 97° (E) 09:47:59 437.485
CUTE 1.7 + AOD 2 19 Apr 09:46:12 09:50:25 53° 99° (E) 09:54:36 437.475
GOMX 1 19 Apr 09:48:19 09:53:17 78° 103° (ESE) 09:58:33 467.674
TIGRISAT 19 Apr 10:01:26 10:04:16 17° 67° (ENE) 10:07:18 435.000
UNISAT 6 19 Apr 10:02:11 10:05:09 18° 67° (ENE) 10:08:19 437.425
ZACube-1 19 Apr 10:11:02 10:13:35 15° 90° (E) 10:16:20 437.345
HO-68 19 Apr 10:11:55 10:19:10 85° 105° (ESE) 10:26:21 435.675
CUBEBUG 2 19 Apr 10:13:02 10:16:54 25° 94° (E) 10:20:54 437.445
AAUSAT CUBESAT 2 19 Apr 10:14:48 10:19:00 65° 100° (E) 10:23:09 437.432
POLYITAN 1 19 Apr 10:21:55 10:23:57 14° 66° (ENE) 10:26:10 437.675
Cosmos 2491 19 Apr 10:22:20 10:30:14 37° 72° (ENE) 10:38:19 435.465 / 435.565
Oscar 11 19 Apr 10:26:31 10:30:36 39° 98° (E) 10:34:41 145.826/435.025
DUCHIFAT 1 19 Apr 10:31:28 10:34:03 17° 67° (ENE) 10:36:48 145.980
DELFI C3 19 Apr 10:37:32 10:41:20 38° 97° (E) 10:45:06 145.870
ANTELSAT 19 Apr 10:42:25 10:46:41 49° 73° (ENE) 10:51:06 437.575/2403.000
QB50P1 19 Apr 10:43:23 10:46:41 23° 69° (ENE) 10:50:04 145.935-145.965
DX 1 19 Apr 10:48:09 10:51:29 22° 94° (E) 10:54:56 434.975-435.025
UWE-3 19 Apr 10:54:09 10:58:45 57° 99° (E) 11:03:23 435.000/436.395/437.385
BUGSAT 1 19 Apr 10:58:23 11:01:30 23° 70° (ENE) 11:04:43 437.445
DOVE 4 19 Apr 11:00:40 11:05:00 31° 289° (WNW) 11:09:27 437.250
CINEMA 3 19 Apr 11:01:01 11:05:48 54° 286° (WNW) 11:10:41 145.822/145.860
COMPASS 1 19 Apr 11:01:56 11:05:40 30° 289° (WNW) 11:09:19 437.405
BRITE-PL 19 Apr 11:03:41 11:06:17 14° 293° (WNW) 11:08:44 437.365/2234.400
HUMSAT D 19 Apr 11:04:16 11:07:55 26° 95° (E) 11:11:37 437.325/437.525
PCSat 19 Apr 11:05:33 11:10:46 46° 303° (WNW) 11:15:59 145.827
QB50P2 19 Apr 11:06:01 11:09:59 42° 73° (ENE) 11:14:01 145.880/145.840
O/OREOS (USA 219) 19 Apr 11:11:34 11:15:16 25° 257° (WSW) 11:18:50 437.305
CANX-2 19 Apr 11:13:07 11:15:42 15° 293° (WNW) 11:18:08 2200.000
SEEDS 19 Apr 11:16:41 11:19:37 18° 292° (WNW) 11:22:25 437.485
FUNcube-1 19 Apr 11:23:17 11:27:54 88° 283° (WNW) 11:32:29 145.935
CUTE 1.7 + AOD 2 19 Apr 11:23:49 11:25:56 13° 294° (WNW) 11:27:50 437.475
VELOX 1 19 Apr 11:26:12 11:29:54 26° 95° (E) 11:33:40 145.980
YUBILEINY 19 Apr 11:28:47 11:36:52 44° 89° (E) 11:45:06 435.215
GOMX 1 19 Apr 11:28:52 11:30:57 12° 294° (WNW) 11:32:49 467.674
POPSAT HIP 1 19 Apr 11:28:55 11:33:06 79° 76° (ENE) 11:37:20 437.405
NANOSAT C BR1 19 Apr 11:29:05 11:33:16 79° 77° (ENE) 11:37:29 145.865
TIGRISAT 19 Apr 11:36:30 11:40:42 42° 262° (W) 11:45:00 435.000
UNISAT 6 19 Apr 11:37:28 11:41:39 40° 263° (W) 11:45:56 437.425
AISAT 19 Apr 11:40:45 11:44:55 39° 98° (E) 11:49:08 437.250
UKube-1 19 Apr 11:40:50 11:45:12 84° 105° (ESE) 11:49:31 .
ZACube-1 19 Apr 11:45:48 11:50:16 49° 286° (WNW) 11:54:42 437.345
CUBEBUG 2 19 Apr 11:49:25 11:53:37 31° 289° (WNW) 11:57:47 437.445
CUBEBUG 1 19 Apr 11:52:59 11:56:29 24° 94° (E) 12:00:05 437.445
AAUSAT CUBESAT 2 19 Apr 11:53:18 11:54:08 10° 295° (WNW) 11:54:43 437.432
50 SAT 19 Apr 11:54:21 11:58:24 62° 100° (E) 12:02:25 437.505
ESTCUBE 1 19 Apr 11:54:40 11:58:34 29° 96° (E) 12:02:30 437.505/2401.250
POLYITAN 1 19 Apr 11:55:25 11:59:29 48° 261° (W) 12:03:36 437.675
HO-68 19 Apr 12:01:23 12:06:07 18° 302° (WNW) 12:10:30 435.675
Oscar 11 19 Apr 12:03:33 12:06:31 18° 292° (WNW) 12:09:20 145.826/435.025
DUCHIFAT 1 19 Apr 12:05:42 12:09:36 38° 262° (W) 12:13:32 145.980
DELFI C3 19 Apr 12:13:42 12:16:12 16° 292° (WNW) 12:18:32 145.870
QB50P1 19 Apr 12:18:52 12:22:28 26° 265° (W) 12:26:01 145.935-145.965
Cosmos 2491 19 Apr 12:19:00 12:27:19 46° 271° (W) 12:35:31 435.465 / 435.565
ANTELSAT 19 Apr 12:21:21 12:23:51 14° 270° (W) 12:26:10 437.575/2403.000
DX 1 19 Apr 12:23:58 12:27:47 30° 290° (WNW) 12:31:33 434.975-435.025
Oscar 19 19 Apr 12:30:00 12:32:11 13° 63° (ENE) 12:34:39 437.125/150
UWE-3 19 Apr 12:32:13 12:34:53 15° 294° (WNW) 12:37:21 435.000/436.395/437.385
BUGSAT 1 19 Apr 12:33:32 12:36:55 25° 265° (W) 12:40:13 437.445
BEESAT 3 19 Apr 12:39:40 12:41:12 12° 41° (NE) 12:42:54 437.485
HUMSAT D 19 Apr 12:40:01 12:43:36 25° 290° (WNW) 12:47:07 437.325/437.525
QB50P2 19 Apr 12:43:46 12:46:10 14° 269° (W) 12:48:23 145.880/145.840
Cosmos 2504 19 Apr 12:57:06 13:00:19 13° 78° (ENE) 13:04:16 435.465 / 435.565
VELOX 1 19 Apr 13:02:42 13:06:25 26° 291° (WNW) 13:10:03 145.980
AIST 1 19 Apr 13:17:59 13:22:16 83° 83° (E) 13:26:31
AISAT 19 Apr 13:18:11 13:21:16 18° 293° (WNW) 13:24:13 437.250
SO-50 19 Apr 13:19:08 13:23:23 38° 115° (ESE) 13:27:49 436.795
YUBILEINY 19 Apr 13:25:39 13:33:49 39° 288° (WNW) 13:41:53 435.215
CUBEBUG 1 19 Apr 13:29:08 13:32:51 27° 290° (WNW) 13:36:29 437.445
ESTCUBE 1 19 Apr 13:31:42 13:35:20 24° 291° (WNW) 13:38:52 437.505/2401.250
50 SAT 19 Apr 13:32:09 13:32:46 10° 295° (WNW) 13:33:09 437.505
TISAT 1 19 Apr 13:37:51 13:42:06 79° 102° (ESE) 13:46:20 437.305
SPROUT 19 Apr 13:41:04 13:45:23 75° 284° (WNW) 13:49:42 437.525
RS-15 19 Apr 13:51:19 13:54:14 12° 99° (E) 13:58:17 29.354- 29.394
ISS 19 Apr 14:00:01 14:02:28 20° 132° (SE) 14:04:58 145.825
Oscar 19 19 Apr 14:05:51 14:10:58 76° 257° (WSW) 14:16:10 437.125/150
BEESAT 2 19 Apr 14:07:54 14:12:01 71° 58° (ENE) 14:16:04 435.950
BEESAT 19 Apr 14:07:58 14:11:46 24° 94° (E) 14:15:40 436.000
SWISSCUBE 19 Apr 14:09:07 14:13:06 27° 95° (E) 14:17:09 437.505
Gurwin Techsat 1B 19 Apr 14:13:28 14:18:08 34° 70° (ENE) 14:22:55 435.225
BEESAT 3 19 Apr 14:15:43 14:19:50 77° 239° (WSW) 14:23:51 437.485
AIST 2 19 Apr 14:24:50 14:28:45 35° 52° (NE) 14:32:36 435.215
ITAMSAT 1 19 Apr 14:24:51 14:29:51 51° 72° (ENE) 14:34:53 435.822/435.867
Cosmos 2504 19 Apr 14:43:43 14:52:27 74° 94° (E) 15:01:19 435.465 / 435.565
SO-50 19 Apr 15:00:07 15:04:04 26° 313° (NW) 15:08:02 436.795
ITUPSAT 1 19 Apr 15:09:32 15:14:19 77° 285° (WNW) 15:19:04 437.325
JAS-2 19 Apr 15:12:17 15:18:22 27° 63° (ENE) 15:24:39 435.910
AO-7 19 Apr 15:31:33 15:39:09 44° 64° (ENE) 15:46:53 29.400- 29.500
STARS 19 Apr 15:33:05 15:36:26 21° 94° (E) 15:39:53 437.465
ISS 19 Apr 15:35:35 15:38:40 38° 327° (NNW) 15:41:45 145.825
HORYU 2 19 Apr 15:36:53 15:41:06 43° 72° (ENE) 15:45:23 437.375
BEESAT 19 Apr 15:45:25 15:49:41 32° 290° (WNW) 15:53:51 436.000
SWISSCUBE 19 Apr 15:46:49 15:50:57 29° 291° (WNW) 15:54:59 437.505
Gurwin Techsat 1B 19 Apr 15:53:35 15:58:10 28° 265° (W) 16:02:40 435.225
RS-15 19 Apr 15:54:07 16:04:51 69° 115° (ESE) 16:15:48 29.354- 29.394
GONETS M04 19 Apr 15:56:54 15:59:03 11° 77° (ENE) 16:02:00
KKS-1 19 Apr 15:57:00 16:01:27 64° 101° (E) 16:05:54 437.445
AIST 2 19 Apr 16:03:56 16:07:08 20° 248° (WSW) 16:10:10 435.215
ITAMSAT 1 19 Apr 16:06:09 16:09:43 18° 269° (W) 16:13:04 435.822/435.867
Cosmos 2504 19 Apr 16:39:54 16:46:50 24° 295° (WNW) 16:53:28 435.465 / 435.565
JAS-2 19 Apr 16:55:06 17:02:49 68° 260° (W) 17:10:38 435.910
STARS 19 Apr 17:08:59 17:12:58 32° 289° (WNW) 17:16:54 437.465
MOZHAYETS 4 19 Apr 17:10:26 17:14:10 25° 94° (E) 17:17:58
ISS 19 Apr 17:14:45 17:15:47 11° 346° (NNW) 17:16:47 145.825
HORYU 2 19 Apr 17:15:08 17:18:01 16° 269° (W) 17:20:44 437.375
AO-7 19 Apr 17:24:18 17:32:01 41° 262° (W) 17:39:40 29.400- 29.500
KKS-1 19 Apr 17:35:47 17:37:38 12° 295° (WNW) 17:39:14 437.445
GONETS M04 19 Apr 17:45:52 17:54:32 72° 94° (E) 18:03:19
CUTE-I 19 Apr 18:02:41 18:07:26 35° 70° (ENE) 18:12:16 437.470
RS-15 19 Apr 18:08:13 18:18:09 37° 320° (NW) 18:28:09 29.354- 29.394
Cubesat XI-IV 19 Apr 18:09:56 18:14:54 41° 71° (ENE) 18:19:54 437.490
PCSat 19 Apr 18:12:35 18:15:53 16° 44° (NE) 18:19:22 145.827
CUBESAT XI-V 19 Apr 18:28:57 18:30:44 12° 89° (E) 18:32:47 437.345
JAS-2 19 Apr 18:47:10 18:49:21 11° 278° (W) 18:50:49 435.910
MOZHAYETS 4 19 Apr 18:47:24 18:51:24 29° 290° (WNW) 18:55:19
PRISM 19 Apr 18:47:42 18:47:58 10° 89° (E) 18:48:31 437.425
AUBIESAT-1 19 Apr 18:48:58 18:52:22 23° 97° (E) 18:55:37 437.475
STRAND 1 19 Apr 19:03:41 19:06:23 15° 90° (E) 19:09:21 437.568
DANDE 19 Apr 19:04:11 19:06:58 76° 280° (W) 19:10:26 436.750
CUSAT 1 19 Apr 19:09:31 19:12:23 39° 285° (WNW) 19:15:58 437.405
Cosmos 2499 19 Apr 19:25:58 19:34:30 57° 91° (E) 19:43:04 435.465 / 435.565
M-CUBED/EXP-1 PRIME 19 Apr 19:34:05 19:38:33 89° 288° (WNW) 19:42:36 437.505
VERMONT LUNAR 19 Apr 19:42:47 19:45:52 33° 154° (SSE) 19:49:00 437.305
CUTE-I 19 Apr 19:43:02 19:47:35 27° 265° (W) 19:52:02 437.470
GONETS M04 19 Apr 19:45:34 19:52:23 23° 295° (WNW) 19:58:52
Cubesat XI-IV 19 Apr 19:50:56 19:55:12 23° 267° (W) 19:59:19 437.490
PCSat 19 Apr 19:54:35 20:00:02 79° 244° (WSW) 20:05:26 145.827
CUBESAT XI-V 19 Apr 20:04:06 20:08:38 58° 285° (WNW) 20:13:09 437.345
COMPASS 1 19 Apr 20:18:12 20:20:01 13° 66° (ENE) 20:22:02 437.405
PRISM 19 Apr 20:19:51 20:23:53 56° 286° (WNW) 20:27:53 437.425
AUBIESAT-1 19 Apr 20:23:24 20:27:12 28° 296° (WNW) 20:30:41 437.475
CANX-2 19 Apr 20:27:51 20:31:26 27° 71° (ENE) 20:35:07 2200.000
ISS 19 Apr 20:28:12 20:30:45 21° 26° (NNE) 20:33:19 145.825
CINEMA 3 19 Apr 20:28:27 20:29:08 10° 64° (ENE) 20:30:02 145.822/145.860
RS-15 19 Apr 20:28:29 20:35:15 17° 353° (N) 20:42:02 29.354- 29.394
DOVE 4 19 Apr 20:28:33 20:31:38 21° 69° (ENE) 20:34:55 437.250
SEEDS 19 Apr 20:31:21 20:34:37 22° 70° (ENE) 20:38:00 437.485
BRITE-PL 19 Apr 20:33:42 20:37:47 60° 75° (ENE) 20:41:54 437.365/2234.400
CUTE 1.7 + AOD 2 19 Apr 20:37:50 20:41:37 31° 72° (ENE) 20:45:28 437.475
HO-68 19 Apr 20:38:31 20:45:28 56° 69° (ENE) 20:52:29 435.675
STRAND 1 19 Apr 20:41:03 20:46:04 59° 287° (WNW) 20:51:03 437.568
PHONESAT 2.4 19 Apr 20:41:22 20:44:40 35° 153° (SSE) 20:47:59 2401.200-2431.200
GOMX 1 19 Apr 20:55:54 21:00:00 67° 75° (ENE) 21:04:12 467.674
AAUSAT CUBESAT 2 19 Apr 21:04:19 21:08:09 36° 73° (ENE) 21:12:04 437.432
CUBEBUG 2 19 Apr 21:11:05 21:13:46 17° 67° (ENE) 21:16:40 437.445
VERMONT LUNAR 19 Apr 21:19:54 21:23:18 75° 349° (N) 21:26:41 437.305
Oscar 11 19 Apr 21:20:14 21:23:49 26° 70° (ENE) 21:27:29 145.826/435.025
Cosmos 2499 19 Apr 21:20:22 21:28:08 32° 290° (WNW) 21:35:38 435.465 / 435.565
DELFI C3 19 Apr 21:24:24 21:27:24 21° 70° (ENE) 21:30:32 145.870
YUBILEINY 19 Apr 21:41:38 21:47:20 19° 63° (ENE) 21:53:26 435.215
DX 1 19 Apr 21:43:12 21:45:56 17° 67° (ENE) 21:48:49 434.975-435.025
UWE-3 19 Apr 21:50:13 21:54:07 36° 72° (ENE) 21:58:11 435.000/436.395/437.385
COMPASS 1 19 Apr 21:51:10 21:55:18 53° 261° (W) 21:59:29 437.405
SO-50 19 Apr 21:51:54 21:56:06 27° 48° (NE) 22:00:19 436.795
HUMSAT D 19 Apr 21:55:50 21:58:22 16° 67° (ENE) 22:01:04 437.325/437.525
CINEMA 3 19 Apr 22:01:35 22:05:46 67° 259° (W) 22:10:08 145.822/145.860
CANX-2 19 Apr 22:03:51 22:07:22 24° 266° (W) 22:10:48 2200.000
ISS 19 Apr 22:04:08 22:07:18 49° 224° (SW) 22:10:26 145.825
DOVE 4 19 Apr 22:05:41 22:09:18 28° 265° (W) 22:12:59 437.250
SEEDS 19 Apr 22:06:34 22:10:18 29° 265° (W) 22:14:00 437.485
CUTE 1.7 + AOD 2 19 Apr 22:14:23 22:17:38 20° 267° (W) 22:20:46 437.475
FUNcube-1 19 Apr 22:17:38 22:21:48 59° 75° (ENE) 22:26:06 145.935
PHONESAT 2.4 19 Apr 22:19:14 22:22:49 75° 349° (N) 22:26:24 2401.200-2431.200
VELOX 1 19 Apr 22:23:06 22:26:18 21° 68° (ENE) 22:29:38 145.980
